Flag for Cuba Weather past 2 weeks in Santa Clara, Cuba

Now
75 °F

Mild.


Feels Like: 74 °F
Forecast: 76 / 94 °F
Wind: 12 mph from East

Location: Cienfuegos - Las Villas

Current Time: Jul 4, 2015 at 8:35:24 AM

Latest Report: Jul 4, 2015 at 6:59 AM


Visibility: N/A

Pressure: 30.04 "Hg

Humidity: 94%

Dew point: 73 °F

Location of Santa ClaraLocation

Historic Weather in Santa Clara — Graph

°F

Santa Clara temperature yesterday

Maximum temperature yesterday: 93 °F (at 1:50 PM)
Minimum temperature yesterday: 75 °F (at 2:59 AM)
Average temperature yesterday: 84 °F

Past Weeks' High & Low Weather Summary

 TemperatureHumidityPressure
High95 °F (Jun 28, 2:50 PM)100% (Jun 22, 3:50 PM)30.21 "Hg (Jun 22, 3:50 PM)
Low48 °F (Jun 22, 3:50 PM)47% (Jun 29, 11:50 AM)29.98 "Hg (Jun 19, 5:50 PM)
Average82 °F79%30.06 "Hg
* Reported Jun 19 6:59 AM — Jul 4 6:59 AM, Santa Clara, Weather by CustomWeather, © 2015

Note: Actual official high and low records may vary slightly from our data, if they occured in-between our weather recording intervals... More about our weather records

Advertising

Santa Clara weather history for previous 24 hours

 ConditionsComfort  
Time TempWeatherWind HumidityBarometerVisibility
6:59 AM
Sat, Jul 4
75 °FMild.12 mph94%30.04 "HgN/A
5:59 AM77 °FWarm.12 mph89%30.04 "HgN/A
4:59 AM77 °FWarm.16 mph89%30.04 "HgN/A
3:59 AM79 °FWarm.15 mph84%30.04 "HgN/A
2:59 AM79 °FWarm.20 mph84%30.04 "HgN/A
1:59 AM81 °FWarm.16 mph79%30.04 "HgN/A
12:59 AM81 °FWarm.17 mph84%30.04 "HgN/A
11:59 PM
Fri, Jul 3
82 °FWarm.17 mph79%30.07 "HgN/A
10:59 PM82 °FWarm.15 mph79%30.04 "HgN/A
9:59 PM82 °FWarm.15 mph79%30.04 "HgN/A
8:59 PM84 °FWarm.9 mph79%30.04 "HgN/A
7:51 PM86 °FScattered clouds.3 mph75%30.01 "Hg6 mi
6:50 PM88 °FScattered clouds.14 mph75%29.98 "Hg6 mi
5:53 PM90 °FPassing clouds.18 mph71%29.98 "Hg6 mi
4:50 PM90 °FPassing clouds.18 mph71%29.98 "Hg6 mi
3:50 PM93 °FScattered clouds.13 mph59%29.98 "Hg6 mi
2:50 PM93 °FScattered clouds.14 mph59%30.01 "Hg6 mi
1:50 PM93 °FScattered clouds.12 mph56%30.01 "Hg6 mi
12:50 PM90 °FPassing clouds.13 mph59%30.04 "Hg6 mi
11:56 AM90 °FPassing clouds.8 mph63%30.04 "Hg6 mi
10:50 AM88 °FSunny.3 mph62%30.04 "Hg6 mi
9:50 AM86 °FSunny.7 mph66%30.04 "Hg6 mi
8:52 AM82 °FClear.8 mph79%30.04 "Hg6 mi
Weather by CustomWeather, © 2015

See weather overviewHow to use our weather pages